Regional Weather Roundup
Issued by NWS Newport/Morehead, NC

Current Version | Previous Version | Text Only | Print | Product List | Glossary On
Versions: 1 2 3 4 5 6 7 8 9 10 11 12 13 14 15 16 17 18 19 20 21 22 23 24 25 26 27 28 29 30 31 32 33 34 35 36 37 38 39 40 41 42 43 44 45 46 47 48 49 50
000
ASUS42 KMHX 250612
RWRMHX
WEATHER ROUNDUP FOR EASTERN NORTH CAROLINA
NATIONAL WEATHER SERVICE NEWPORT/MOREHEAD CITY NC
200 AM EDT SAT APR 25 2015

NOTE: "FAIR" INDICATES FEW OR NO CLOUDS BELOW 12,000 FEET
WITH NO SIGNIFICANT WEATHER AND/OR OBSTRUCTIONS TO VISIBILITY

NCZ015>017-031-032-045>047-102-103-250700-
NORTH COAST

CITY           SKY/WX    TMP DP  RH WIND       PRES   REMARKS
EDENTON        FAIR      57  42  57 SW6       29.93F
ELIZABETH CITY FAIR      51  45  79 SE5       29.93F
KITTY HAWK     FAIR      50  43  77 E5        29.94F
MANTEO         FAIR      49  44  81 SE5       29.95F

$$

NCZ045>047-081-094-103-104-250700-
CENTRAL COAST

CITY           SKY/WX    TMP DP  RH WIND       PRES   REMARKS
FRISCO         FAIR      55  40  56 W9        29.95F
SWANQUARTER      N/A     61 N/A N/A SW15      29.91S

$$

NCZ095-097-098-100-101-250700-
SOUTHERN COAST

CITY           SKY/WX    TMP DP  RH WIND       PRES   REMARKS
BEAUFORT       FAIR      59  50  72 SW6       29.96F
CEDAR ISLAND     N/A     57 N/A N/A SW5       30.00S
JACKSONVILLE   FAIR      52  44  74 SW3       29.96F
PINEY ISLAND   FAIR     N/A N/A N/A SW7       29.95F
WILMINGTON     FAIR      57  48  72 SW5       29.97F


$$

NCZ011>013-027>030-043-044-078>080-089-090>093-098-250700-
COASTAL PLAIN

CITY           SKY/WX    TMP DP  RH WIND       PRES   REMARKS
AHOSKIE        FAIR      42  39  88 CALM      29.93F
CLINTON        FAIR      51  43  74 CALM      29.96F
ELIZABETHTOWN  FAIR      54  44  69 CALM      29.96F
GOLDSBORO      FAIR      52  40  64 CALM      29.92F
GREENVILLE     FAIR      50  37  62 CALM      29.96F
HAVELOCK       FAIR      47  43  86 CALM      29.97F
KENANSVILLE    FAIR      45  42  90 CALM      29.96F
KINSTON        FAIR      50  41  71 S3        29.95F
NEW BERN       FAIR      48  42  80 CALM      29.97F
RICHLANDS      FAIR      46  39  76 CALM      29.97F
ROCKY MOUNT    FAIR      45  41  86 CALM      29.94F
WASHINGTON     FAIR      50  38  64 S3        29.95F
WHITEVILLE     FAIR      55  45  69 SW3       29.96F

$$

AMZ130-135-150-152-154-156-158-170-250-252-270-ANZ085-086-088-633-658-670-250700-
MARINE OBSERVATIONS

STATION/POSITION TIME  TEMP    WIND        PRES    WAVE   SWELL
                       AIR SEA DIR/SP/G            HT/PER HT/PER
                 (UTC) (F)     (DEG/KT/KT) (MB)    (FT/S) (FT/S)
CHESAPEAKE LIGHT 0500   51     180/ 15/ 15 1015.0
64 E VA BEACH    0550   54 62  210/ 10/ 12 1014.0    2/14   2/14
DUCK             0500   52 55  130/ 13/ 14 1013.5
2 E DUCK         0511      54                N/A     2/14   2/14
10 NE DUCK       NOT AVBL
OREGON INLET     0500   51 60  100/  5/  7 1014.5
HATTERAS CG      0506   61 65  240/  9/ 13 1014.2
DIAMOND BUOY     0550   64 72  260/ 14/ 17 1014.2    4/ 9   3/ 9
CAPE LOOKOUT     0600   61     250/  6/  6 1014.3
BEAUFORT LAB     0506   61 65  260/  4/  5 1014.1
27 SE WRIGHTSVLE 0500   63 71  260/ 14/ 16   N/A
5 SE WRIGHTSVLE  0508   64 65  240/ 14/ 19 1015.0
225 S CAPE HAT   0550   63 70  340/  4/  8 1016.7    5/ 7   5/ 7
41 SE CHARLESTON 0550   68 72  160/  8/ 10 1015.2    3/ 9   3/ 9

$$


USA.gov is the U.S. government's official web portal to all federal, state and local government web resources and services.